Regional Weather Roundup
Issued by NWS

Home | Current Version | Previous Version | Text Only | Print | Product List | Glossary On
Versions: 1 2 3 4 5 6 7 8 9 10 11 12 13 14 15 16 17 18 19 20 21 22 23 24 25 26 27 28 29 30 31 32 33 34 35 36 37 38 39 40 41 42 43 44 45 46 47 48 49 50
000
ASUS45 KABQ 222110
RWRNM
WEATHER ROUNDUP FOR NEW MEXICO
NATIONAL WEATHER SERVICE ALBUQUERQUE NM
300 PM MDT MON SEP 22 2014

NOTE: "FAIR" MEANS FEW OR NO CLOUDS BELOW 12,000 FEET AGL WITH NO
       SIGNIFICANT WEATHER OR OBSTRUCTIONS TO VISION.

      THIS PRODUCT IS RELEASED AS TWO VERSIONS.  ONE VERSION NEAR
      THE TOP OF THE HOUR CONTAINING PRELIMINARY DATA FROM ALBUQUERQUE
      AND OTHER STATIONS.  A FINAL VERSION WITH ADDITIONAL DATA IS
      ISSUED ABOUT 10 MINUTES AFTER THE HOUR.

NMZ501-503-504-510>518-222200-
NORTHWEST PLATEAU/NORTHCENTRAL MOUNTAINS

CITY           SKY/WX    TMP DP  RH WIND       PRES   REMARKS
FARMINGTON     PTSUNNY   77  53  43 W9        30.20F
LOS ALAMOS     PTSUNNY   66  54  64 SW9       30.35S
SANTA FE       MOSUNNY   74  52  46 VRB3      30.28F
TAOS           CLOUDY    63  54  72 W7        30.34F
ANGEL FIRE     CLOUDY    58  53  85 S10       30.40F

$$
NMZ402-403-502-505>509-222200-
WESTCENTRAL MOUNTAINS/SOUTHWEST MOUNTAINS

CITY           SKY/WX    TMP DP  RH WIND       PRES   REMARKS
GALLUP         SUNNY     71  57  61 VRB3      30.28F
GRANTS         TSTM      64  57  77 N8        30.30R
SILVER CITY    PTSUNNY   73  63  68 SE5       30.25S

$$
NMZ407-409-411-412-222200-
SOUTHERN DESERTS

CITY           SKY/WX    TMP DP  RH WIND       PRES   REMARKS
LORDSBURG      FAIR      79  61  53 MISG      30.15F
DEMING         MOSUNNY   77  64  64 SE7       30.16F
LAS CRUCES     MOSUNNY   76  66  71 E8        30.19F
T OR C         PTSUNNY   72  64  76 SE12      30.20F

$$
NMZ519>523-222200-
CENTRAL VALLEYS/CENTRAL HIGHLANDS

CITY           SKY/WX    TMP DP  RH WIND       PRES   REMARKS
ALBUQUERQUE    MOSUNNY   80  55  42 SW10      30.20F
DOUBLE EAGLE   PTSUNNY   77  55  47 S8        30.24F
MORIARTY ARPT  CLOUDY    72  57  60 SE12      30.30F
CLINES CORNERS LGT RAIN  62  59  90 SE14      30.34F FOG
BELEN          FAIR      81  53  38 S7G16     30.18F
SOCORRO        FAIR      79  59  49 SE16      30.18F

$$
NMZ524>526-539-540-222200-
SOUTHCENTRAL MOUNTAINS

CITY           SKY/WX    TMP DP  RH WIND       PRES   REMARKS
RUIDOSO        NOT AVBL

$$
NMZ527>531-222200-
NORTHEAST HIGHLANDS/NORTHEAST PLAINS

CITY           SKY/WX    TMP DP  RH WIND       PRES   REMARKS
LAS VEGAS      CLOUDY    63  57  81 S15       30.35F
RATON          CLOUDY    66  57  72 S23       30.27F
CLAYTON        PTSUNNY   71  58  63 S25G31    30.24F

$$
NMZ532>537-222200-
EASTCENTRAL PLAINS

CITY           SKY/WX    TMP DP  RH WIND       PRES   REMARKS
TUCUMCARI      CLOUDY    75  62  64 S17       30.22F
CANNON AFB     CLOUDY    71  61  70 SE15      30.26F
CLOVIS AIRPORT   N/A     72  63  73 S16       30.29F

$$
NMZ028-029-538-222200-
SOUTHEAST PLAINS

CITY           SKY/WX    TMP DP  RH WIND       PRES   REMARKS
ROSWELL        LGT RAIN  68  65  90 SE9       30.22F
CARLSBAD       CLOUDY    74  74 100 S10       30.18F
HOBBS          LGT RAIN  66  64  94 SE14      30.25S


$$



USA.gov is the U.S. government's official web portal to all federal, state and local government web resources and services.